This is the latest recevied weather packets stored in our database for station/object SQ9PDE-13. If no packets are shown the sender has not sent any weather packets the latest 10 day(s).
| Time | Temp. | Humidity | Pressure | Rain* | Wind** | Luminosity | Snow |
|---|---|---|---|---|---|---|---|
| 1777529817 | 8.33° C | 56% | 1032.9 hPa | - | - | - | - |
| 1777529517 | 10° C | 56% | 1032.7 hPa | - | - | - | - |
| 1777529216 | 10° C | 58% | 1032.7 hPa | - | - | - | - |
| 1777528915 | 8.89° C | 60% | 1032.8 hPa | - | - | - | - |
| 1777528615 | 7.22° C | 63% | 1033 hPa | - | - | - | - |
| 1777528314 | 6.67° C | 65% | 1032.9 hPa | - | - | - | - |
| 1777528014 | 5° C | 67% | 1032.4 hPa | - | - | - | - |
| 1777527713 | 3.89° C | 65% | 1032.6 hPa | - | - | - | - |
| 1777527413 | 3.33° C | 66% | 1032.5 hPa | - | - | - | - |
| 1777527112 | 3.33° C | 67% | 1032.5 hPa | - | - | - | - |
| 1777526812 | 2.78° C | 69% | 1032.7 hPa | - | - | - | - |
| 1777526511 | 2.78° C | 70% | 1032.6 hPa | - | - | - | - |
| 1777526211 | 2.78° C | 69% | 1032.7 hPa | - | - | - | - |
| 1777525910 | 2.78° C | 69% | 1032.6 hPa | - | - | - | - |
| 1777525610 | 2.78° C | 68% | 1032.7 hPa | - | - | - | - |
| 1777525309 | 3.89° C | 69% | 1033 hPa | - | - | - | - |
| 1777525009 | 3.33° C | 76% | 1033.4 hPa | - | - | - | - |
| 1777524708 | 3.33° C | 77% | 1033.4 hPa | - | - | - | - |
| 1777524408 | 2.78° C | 77% | 1033.3 hPa | - | - | - | - |
| 1777524107 | 2.78° C | 77% | 1033.1 hPa | - | - | - | - |
| 1777523807 | 2.22° C | 78% | 1033.3 hPa | - | - | - | - |
| 1777523506 | 1.67° C | 80% | 1033.3 hPa | - | - | - | - |
| 1777523206 | 1.11° C | 83% | 1033.1 hPa | - | - | - | - |
| 1777522905 | 0° C | 85% | 1033.3 hPa | - | - | - | - |
| 1777522605 | 0° C | 86% | 1033.2 hPa | - | - | - | - |
* Rain since midnight (hover to see other rain measurements)
** Current wind speed in m/s (hover to see current wind gust speed)